Tyler, TX

6:24 PM CDT on August 31, 2016 (GMT -0500)
Tyler Pounds

Weather History for KTYR - December, 2011

Change the Weather History Date:

Sunday, December 25, 2011

  Actual Average Record
Temperature  
Mean Temperature 43 °F 47 °F  
Max Temperature 45 °F 56 °F 83 °F (1955)
Min Temperature 40 °F 38 °F 4 °F (1983)
Degree Days  
Heating Degree Days 22 18  
Month to date heating degree days 413 418  
Since 1 July heating degree days 721 792  
Cooling Degree Days 0 0  
Month to date cooling degree days 1 0  
Year to date cooling degree days 3677 2411  
Moisture  
Dew Point 43 °F    
Average Humidity 97    
Maximum Humidity 100    
Minimum Humidity 93    
Precipitation  
Precipitation 0.16 in 0.15 in 1.68 in (2000)
Month to date precipitation 5.54 3.45  
Year to date precipitation 24.78 45.00  
Snow  
Snow 0.00 in - - ()
Month to date snowfall 0.0  
Since 1 July snowfall 0.0  
Snow Depth 0.00 in    
Sea Level Pressure  
Sea Level Pressure 30.36 in    
Wind  
Wind Speed 6 mph (North)    
Max Wind Speed 13 mph    
Max Gust Speed 16 mph    
Visibility 4 miles    
Events Rain    
T = Trace of Precipitation, MM = Missing Value Source: NWS Daily Summary

Daily Weather History Graph

Daily Weather History Graph

Search for Another Location

Airport or City:

Trip Planner

Search our weather history database for the weather conditions in past years. The results will help you decide how hot, cold, wet, or windy it might be!

Date:

Astronomy

Dec. 25, 2011 Rise Set
Actual Time 7:20 AM CST 5:22 PM CST
Civil Twilight 6:53 AM CST 5:49 PM CST
Nautical Twilight 6:22 AM CST 6:20 PM CST
Astronomical Twilight 5:52 AM CST 6:50 PM CST
Moon 8:01 AM CST (12/25) 6:40 PM CST (12/25)
Length of Visible Light 10h 56m
Length of Day
10h 01m
New Moon, 1% of the Moon is Illuminated
Dec 25
New Moon
Jan 1
First Quarter
Jan 9
Full
Jan 16
Last Quarter
Jan 23
New

Hourly Weather History & Observations

Time (CST) Temp. Windchill Dew Point Humidity Pressure Visibility Wind Dir Wind Speed Gust Speed Precip Events Conditions
12:53 AM 41.0 °F 35.2 °F 39.9 °F 96% 30.36 in 6.0 mi NNE 9.2 mph - 0.03 in Rain Light Rain
1:53 AM 41.0 °F 35.8 °F 41.0 °F 100% 30.37 in 6.0 mi North 8.1 mph - 0.00 in   Overcast
2:53 AM 41.0 °F 38.0 °F 41.0 °F 100% 30.35 in 5.0 mi NNE 4.6 mph - 0.01 in   Overcast
3:53 AM 41.0 °F 37.1 °F 41.0 °F 100% 30.34 in 5.0 mi North 5.8 mph - N/A   Overcast
4:53 AM 41.0 °F 37.1 °F 41.0 °F 100% 30.36 in 5.0 mi North 5.8 mph - N/A   Overcast
5:53 AM 41.0 °F 35.8 °F 41.0 °F 100% 30.37 in 4.0 mi North 8.1 mph - N/A   Overcast
6:45 AM 41.0 °F 35.8 °F 41.0 °F 100% 30.37 in 2.5 mi North 8.1 mph - 0.01 in Rain Light Rain
6:53 AM 41.0 °F 35.8 °F 41.0 °F 100% 30.38 in 2.5 mi North 8.1 mph - 0.01 in Rain Light Rain
7:50 AM 41.0 °F 35.8 °F 41.0 °F 100% 30.38 in 1.5 mi NNE 8.1 mph - 0.02 in Rain Light Rain
7:53 AM 41.0 °F 35.2 °F 41.0 °F 100% 30.38 in 1.5 mi NNE 9.2 mph - 0.02 in Rain Light Rain
8:46 AM 42.8 °F 38.0 °F 41.0 °F 93% 30.39 in 2.0 mi North 8.1 mph 16.1 mph 0.01 in   Overcast
8:53 AM 42.1 °F 37.1 °F 42.1 °F 100% 30.40 in 2.5 mi NNE 8.1 mph - 0.01 in   Overcast
9:02 AM 42.8 °F 38.6 °F 42.8 °F 100% 30.39 in 3.0 mi NNE 6.9 mph - N/A   Overcast
9:13 AM 42.8 °F 37.5 °F 42.8 °F 100% 30.39 in 2.0 mi NNE 9.2 mph - N/A   Overcast
9:40 AM 42.8 °F 40.1 °F 42.8 °F 100% 30.41 in 1.8 mi ENE 4.6 mph - 0.00 in   Overcast
9:53 AM 43.0 °F 39.5 °F 43.0 °F 100% 30.41 in 1.8 mi ENE 5.8 mph - 0.00 in   Overcast
10:07 AM 42.8 °F 38.6 °F 42.8 °F 100% 30.41 in 2.0 mi NE 6.9 mph - N/A   Overcast
10:25 AM 42.8 °F 38.6 °F 42.8 °F 100% 30.40 in 4.0 mi NE 6.9 mph - N/A   Overcast
10:39 AM 42.8 °F 39.3 °F 42.8 °F 100% 30.40 in 2.5 mi NNE 5.8 mph - N/A   Overcast
10:53 AM 44.1 °F 40.8 °F 44.1 °F 100% 30.41 in 2.5 mi North 5.8 mph - N/A   Overcast
11:21 AM 44.6 °F 40.7 °F 44.6 °F 100% 30.40 in 1.5 mi North 6.9 mph - 0.00 in Rain Light Rain
11:53 AM 44.1 °F 40.1 °F 44.1 °F 100% 30.39 in 2.0 mi North 6.9 mph - 0.01 in Rain Light Rain
12:45 PM 44.6 °F 40.2 °F 42.8 °F 93% 30.37 in 2.0 mi North 8.1 mph - 0.01 in Rain Light Rain
12:53 PM 44.1 °F 39.5 °F 44.1 °F 100% 30.38 in 2.0 mi North 8.1 mph - 0.01 in Rain Light Rain
1:20 PM 44.6 °F 40.2 °F 44.6 °F 100% 30.36 in 1.8 mi NNW 8.1 mph - 0.01 in Rain Light Rain
1:35 PM 44.6 °F 40.7 °F 42.8 °F 93% 30.37 in 2.0 mi NNW 6.9 mph - 0.01 in Rain Light Rain
1:53 PM 44.1 °F 40.1 °F 44.1 °F 100% 30.36 in 2.5 mi NNW 6.9 mph - 0.01 in Rain Light Rain
2:24 PM 44.6 °F 39.2 °F 44.6 °F 100% 30.35 in 2.5 mi North 10.4 mph - 0.01 in   Overcast
2:31 PM 44.6 °F 39.7 °F 44.6 °F 100% 30.35 in 2.0 mi North 9.2 mph - 0.01 in   Overcast
2:53 PM 45.0 °F 41.2 °F 44.1 °F 97% 30.35 in 2.0 mi North 6.9 mph - 0.01 in   Overcast
3:05 PM 44.6 °F 40.2 °F 44.6 °F 100% 30.34 in 2.0 mi North 8.1 mph - N/A   Overcast
3:26 PM 44.6 °F 39.7 °F 44.6 °F 100% 30.34 in 2.5 mi North 9.2 mph - N/A   Overcast
3:34 PM 44.6 °F 40.2 °F 44.6 °F 100% 30.34 in 3.0 mi North 8.1 mph - N/A   Overcast
3:53 PM 45.0 °F 40.6 °F 44.1 °F 97% 30.35 in 3.0 mi North 8.1 mph - N/A   Overcast
4:18 PM 44.6 °F 40.7 °F 44.6 °F 100% 30.35 in 2.5 mi North 6.9 mph - N/A   Overcast
4:43 PM 44.6 °F 39.7 °F 44.6 °F 100% 30.35 in 1.8 mi North 9.2 mph - N/A   Overcast
4:53 PM 44.1 °F 40.1 °F 44.1 °F 100% 30.35 in 1.8 mi North 6.9 mph - N/A   Overcast
5:19 PM 44.6 °F 40.2 °F 44.6 °F 100% 30.34 in 2.0 mi North 8.1 mph - 0.01 in   Overcast
5:28 PM 44.6 °F 39.7 °F 44.6 °F 100% 30.34 in 3.0 mi North 9.2 mph - 0.01 in   Overcast
5:53 PM 44.1 °F 40.1 °F 44.1 °F 100% 30.35 in 2.5 mi North 6.9 mph - 0.01 in   Overcast
6:04 PM 44.6 °F 41.4 °F 44.6 °F 100% 30.34 in 3.0 mi North 5.8 mph - N/A   Overcast
6:15 PM 44.6 °F 41.4 °F 44.6 °F 100% 30.35 in 3.0 mi North 5.8 mph - N/A   Overcast
6:53 PM 44.1 °F 41.5 °F 44.1 °F 100% 30.35 in 7.0 mi North 4.6 mph - N/A   Overcast
7:23 PM 44.6 °F - 44.6 °F 100% 30.34 in 9.0 mi Calm Calm - N/A   Overcast
7:53 PM 45.0 °F - 44.1 °F 97% 30.35 in 8.0 mi Calm Calm - 0.00 in Rain Light Rain
8:32 PM 44.6 °F - 44.6 °F 100% 30.33 in 10.0 mi Calm Calm - 0.00 in   Overcast
8:45 PM 44.6 °F 43.1 °F 44.6 °F 100% 30.33 in 10.0 mi NNW 3.5 mph - 0.00 in   Overcast
8:53 PM 45.0 °F - 45.0 °F 100% 30.34 in 10.0 mi Calm Calm - 0.00 in   Overcast
9:27 PM 44.6 °F 41.4 °F 44.6 °F 100% 30.32 in 8.0 mi North 5.8 mph - 0.01 in Rain Light Rain
9:40 PM 44.6 °F 41.4 °F 42.8 °F 93% 30.33 in 8.0 mi NNW 5.8 mph - 0.01 in Rain Light Rain
9:53 PM 44.1 °F 40.1 °F 43.0 °F 96% 30.33 in 10.0 mi North 6.9 mph - 0.01 in Rain Light Rain
10:53 PM 44.1 °F 40.1 °F 44.1 °F 100% 30.32 in 4.0 mi North 6.9 mph - 0.01 in Rain Light Rain
11:53 PM 43.0 °F 38.8 °F 43.0 °F 100% 30.29 in 9.0 mi North 6.9 mph - 0.01 in   Overcast